Location: Newark
(44.6768°N, 22.5302°E)
Time: 01:46:11
(UTC+00:00)

UKube-1 - Pass Details

Date: 04 July 2022
Orbit: 608 x 615 km, 98.4° (Epoch: 15 August)

Event Time Altitude Azimuth Distance (km) Brightness Sun altitude
Rises 21:15:21 0° 5° (N) 2,894 ? -20.1°
Reaches altitude 10° 21:17:41 10° 356° (N) 1,983 ? -20.3°
Maximum altitude 21:21:34 34° 292° (WNW) 1,011 ? -20.5°
Enters shadow 21:24:20 17° 235° (SW) 1,574 ? -20.6°
